Location: Bercimuel
(41.3983°N, 3.5711°W)
Time: 15:43:36
(UTC+00:00)

IRS-1C Rocket - Pass Details

Date: 15 May 2026
Orbit: 798 x 805 km, 98.7° (Epoch: 10 June)

Event Time Altitude Azimuth Distance (km) Brightness Sun altitude
Exits shadow 22:08:07 47° 194° (SSW) 1,056 4.4 -23.2°
Maximum altitude 22:09:32 68° 258° (WSW) 865 4.2 -23.4°
Drops below altitude 10° 22:14:48 10° 341° (NNW) 2,390 7.6 -23.9°
Sets 22:17:10 0° 344° (NNW) 3,324 8.6 -24.1°
